GCLALPMA

Guest
Details From GCLA - La Palma
To LPMA - Madeira
Flight Number -
Tags generated
Created
Modified
Stats Distance 281 nm / 520 km
Max Altitude 33,100 ft / 10,089 m
Waypoints 4
Social Downloads 4
Likes 0
Share VATSIM

Download

Looking for another format? Having issues loading an existing format? Contact us
Advertisement - Login to hide

Notes

Basic altitude profile: - Ascent Rate: 2500ft/min - Ascent Speed: 250kts - Cruise Altitude: 35000ft - Cruise Speed: 420kts - Descent Rate: 1500ft/min - Descent Speed: 250kts Options: - Use NATs: no - Use PACOTS: yes - Use low airways: yes - Use high airways: no

Route

GCLA BRICK G851 ORTIS LPMA

ID Type Via Altitude Latitude Longitude Leg Dist Tot Dist Heading (true) Name
O GCLA APT - 0 ft / 0 m 28.62648˚ -17.75561˚ - 0 nm - La Palma
BRICK FIX - 33,100 ft / 10,089 m 29.59137˚ -16.37289˚ 92 nm 92 nm 51° / 52° -
ORTIS FIX G851 (AWY-LO) 16,700 ft / 5,090 m 31.40696˚ -16.55691˚ 109 nm 202 nm 355° / 355° -
O LPMA APT - 0 ft / 0 m 32.69770˚ -16.77445˚ 78 nm 280 nm 352° / 352° Madeira

Altitude Profile

Advertisement - Login to hide

Weather


0- 5 10 15 20 25 30 35+ Temperature / ° C

Clouds and Precipitation
Forecast for 2017-12-16 18:00 UTC. Updated 2 hours ago

Ground ~20,000 ft ~40,000 ft Winds

GCLA

Details ICAO GCLA (SPC)
Name La Palma
Region Canary Islands
Timezone Atlantic/Canary (UTC+0.0)
Stats Elevation 107 ft / 33 m (AMSL)
Location 28.626480° -17.755613°
Runways 1
Magnetic Variation 5.521° W

METAR

GCLA 161700Z 01016G26KT 340V060 9999 SCT030 20/17 Q1022

Decode

TAF

TAF AMD GCLA 161435Z 1615/1715 01014KT 9999 SCT035 TX20/1714Z TN16/1706Z PROB40 TEMPO 1615/1715 4900 RA

Decode

Departure Runways

ID Width Length Bearing (true) Bearing (mag) Surface Threshold Offset Overrun Length
01 148 ft / 45 m 7,240 ft / 2,207 m 359.02° 4.54° Asphalt 0 ft / 0 m 279 ft / 85 m
19 148 ft / 45 m 7,240 ft / 2,207 m 179.02° 184.54° Asphalt 0 ft / 0 m 236 ft / 72 m

LPMA

Details ICAO LPMA (FNC)
Name Madeira
Region Portugal
Timezone Atlantic/Madeira (UTC+0.0)
Stats Elevation 192 ft / 59 m (AMSL)
Location 32.697704° -16.774449°
Runways 1
Magnetic Variation 4.981° W

METAR

LPMA 161700Z 03011KT 5000 -SHRA BKN013 FEW016CB 17/16 Q1024

Decode

TAF

TAF AMD TAF AMD LPMA 161605Z 1616/1712 03013KT 5000 -RADZ BR BKN013 TEMPO 1616/1618 9999 NSW SCT013 BKN030 PROB30 TEMPO 1616/1618 3000 +DZ SCT008 BKN012 FEW015TCU BECMG 1618/1621 9999 NSW SCT015 SCT030 PROB40 TEMPO 1618/1712 04018G28KT

Decode

Destination Runways

ID Width Length Bearing (true) Bearing (mag) Surface Threshold Offset Overrun Length
05 141 ft / 43 m 8,683 ft / 2,647 m 42.98° 47.96° Asphalt 472 ft / 144 m 0 ft / 0 m
23 141 ft / 43 m 8,683 ft / 2,647 m 222.99° 227.97° Asphalt 466 ft / 142 m 0 ft / 0 m

Popular Alternatives